Miscellaneous Local Product
Issued by NWS Hastings, NE

Home | Current Version | Previous Version | Text Only | Print | Product List | Glossary Off
Versions: 1 2 3 4 5 6 7 8 9 10 11 12 13 14 15 16 17 18 19 20 21 22 23 24 25 26 27 28 29 30 31 32 33 34 35 36 37 38 39 40 41 42 43 44 45 46 47 48 49 50

000
AXUS43 KGID 210402
MISGRI

GID CWA HOURLY WEATHER ROUNDUP
NATIONAL WEATHER SERVICE HASTINGS NE
1100 PM CDT MON OCT 20 2014

NOTE: "FAIR" INDICATES FEW OR NO CLOUDS BELOW 12,000 FEET WITH NO
SIGNIFICANT WEATHER AND/OR OBSTRUCTIONS TO VISIBILITY.

...SOUTH CENTRAL NEBRASKA...

CITY           SKY/WX    TMP DP  RH WIND       PRES   REMARKS
GRAND ISLAND   CLEAR     51  41  68 SE8       30.07S
HASTINGS       CLEAR     56  39  53 S5        30.07S
KEARNEY        CLEAR     52  39  62 CALM      30.07F
ORD            CLEAR     46  38  73 CALM      30.04S
YORK           CLEAR     55  37  50 SE7       30.07F
AURORA         CLEAR     50  38  63 SE5       30.07S HAZE
LEXINGTON      CLEAR     53  41  63 SE3       30.06S
HOLDREGE       CLEAR     55  41  60 CALM      30.07S
HEBRON         CLEAR     45  39  79 CALM      30.08S

...NEBRASKA PANHANDLE...

CITY           SKY/WX    TMP DP  RH WIND       PRES   REMARKS
CHADRON        LGT RAIN  66  38  35 S22       29.93R
ALLIANCE       CLEAR     48  39  71 S10       30.01S
SCOTTSBLUFF    CLEAR     63  37  38 S14G20    30.01S
SIDNEY         CLEAR     55  39  54 S13       30.07S

...WESTERN AND NORTH CENTRAL NEBRASKA...

CITY           SKY/WX    TMP DP  RH WIND       PRES   REMARKS
VALENTINE      CLEAR     55  39  54 S7        29.99S
AINSWORTH      CLEAR     57  41  55 S10       30.01F
ONEILL         CLEAR     54  42  63 SE6       30.04S
BROKEN BOW     CLEAR     42  37  82 CALM      30.05S
IMPERIAL       CLEAR     58  37  45 S12       30.07S
NORTH PLATTE   CLEAR     50  38  63 VRB5      30.05S
MCCOOK         CLEAR     56  40  55 S7        30.07S

...EASTERN NEBRASKA...

CITY           SKY/WX    TMP DP  RH WIND       PRES   REMARKS
NORFOLK        CLEAR     49  38  65 CALM      30.06S
SO SIOUX CITY  CLEAR     41  40  96 CALM      30.07R
TEKAMAH        CLEAR     43  38  82 CALM      30.07R
COLUMBUS       CLEAR     43  34  70 CALM      30.08S
ALBION         CLEAR     45  38  75 CALM      30.06F
OMAHA EPPLEY   CLEAR     49  44  83 CALM      30.08R
OFFUTT AFB     CLEAR     44  44  99 W2        30.07R
MILLARD        CLEAR     47  45  90 CALM      30.07R
LINCOLN        CLEAR     42  37  82 N5        30.09S
NEBRASKA CITY  CLEAR     56  32  39 S3        30.07S
BEATRICE       CLEAR     45  38  77 CALM      30.08R
FALLS CITY     CLEAR     50  38  63 CALM      30.07R

...NORTHERN KANSAS...

CITY           SKY/WX    TMP DP  RH WIND       PRES   REMARKS
GOODLAND       CLEAR     51  39  63 S10       30.12R
HILL CITY      CLEAR     56  42  59 CALM      30.09S
NORTON         CLEAR     55  37  50 S8        30.07S
PHILLIPSBURG   CLEAR     52  45  76 CALM      30.08S
BELOIT         CLEAR     46  43  87 CALM      30.06F
HAYS           CLEAR     52  41  66 SE5       30.09S
RUSSELL        CLEAR     52  44  74 S7        30.07S
CONCORDIA      CLEAR     56  42  59 S7        30.07S
SALINA         CLEAR     54  47  77 CALM      30.08S
TOPEKA         CLEAR     48  47  96 CALM      30.09R FOG



USA.gov is the U.S. government's official web portal to all federal, state and local government web resources and services.